Regional Weather Roundup
Issued by NWS Kansas City/Pleasant Hill, MO

Home | Current Version | Previous Version | Graphics & Text | Print | Product List | Glossary Off
Versions: 1 2 3 4 5 6 7 8 9 10 11 12 13 14 15 16 17 18 19 20 21 22 23 24 25 26 27 28 29 30 31 32 33 34 35 36 37 38 39 40 41 42 43 44 45 46 47 48 49 50

000
ASUS43 KEAX 191310
RWREAX

WEATHER ROUNDUP FOR EASTERN KANSAS AND NORTHWEST MISSOURI
NATIONAL WEATHER SERVICE KANSAS CITY/PLEASANT HILL MO
800 AM CDT SAT APR 19 2014

KSZ040-057-103>105-MOZ028-029-037-043-191400-
...KANSAS CITY METROPOLITAN AREA...

CITY           SKY/WX    TMP DP  RH WIND       PRES   REMARKS
K.C. INTL      MOSUNNY   56  41  57 S12       30.15R
K.C. DOWNTOWN  SUNNY     57  41  55 S9        30.16R
LEES SUMMIT    SUNNY     56  41  57 S13       30.17R
OLATHE - IXD   SUNNY     53  41  63 S9        30.17R
OLATHE - OJC   SUNNY     51  41  68 S7        30.16R
LAWRENCE       MOSUNNY   51  44  77 SE8       30.15R

$$

MOZ001>008-011>017-020>025-030>033-038>040-044>046-053-054-191400-
...NORTHERN AND CENTRAL MISSOURI...

CITY           SKY/WX    TMP DP  RH WIND       PRES   REMARKS
ST. JOSEPH     MOSUNNY   54  42  64 S6        30.15R
MOSBY          FAIR      52  43  71 SE5       30.17S
WHITEMAN AFB   SUNNY     56  41  57 S9        30.20R
CLINTON        SUNNY     55  46  71 SE6       30.21R
SEDALIA        SUNNY     56  43  61 SE12      30.22R
WARSAW         NOT AVBL
MARSHALL         N/A     57  46  67 SE6       30.23R
CHILLICOTHE      N/A     55  41  59 SE8       30.20S
MOBERLY        SUNNY     55  41  58 SE9       30.25R
KIRKSVILLE     SUNNY     50  38  63 SE12      30.24R

$$

MOZ041-047>049-056>058-063>065-088>090-097-191400-
...EASTERN AND SOUTHERN MISSOURI...

CITY           SKY/WX    TMP DP  RH WIND       PRES   REMARKS
ST. LOUIS INTL MOSUNNY   53  40  61 E8        30.29R
SPIRIT OF STL  SUNNY     50  44  80 CALM      30.28R
COLUMBIA       SUNNY     54  43  66 SE8       30.25R
JEFFERSON CITY SUNNY     48  44  86 SE6       30.26R
MEXICO         SUNNY     48  43  81 E5        30.27R
HANNIBAL       SUNNY     52  32  46 SE7       30.28R
ROLLA          SUNNY     55  42  61 SE9       30.25R
LEBANON        SUNNY     57  43  58 SE6       30.26R
OSAGE BEACH    SUNNY     54  39  58 S5        30.27R
SPRINGFIELD    SUNNY     55  43  63 SE7       30.23R
BRANSON        MOSUNNY   55  45  67 SE6       30.24R
NEVADA         SUNNY     57  45  62 S8        30.21S
JOPLIN         MOSUNNY   58  45  62 S10       30.20R
WEST PLAINS    SUNNY     54  43  66 NE3       30.27R

$$

IAZ060-094-KSZ022-034>040-054-083-096-NEZ052-066-093-191400-
...KANSAS...SOUTHEAST NEBRASKA AND IOWA...

CITY           SKY/WX    TMP DP  RH WIND       PRES   REMARKS
TOPEKA         MOSUNNY   55  42  61 S5        30.14R
MANHATTAN      PTSUNNY   57  42  57 S8        30.09R
EMPORIA        MOSUNNY   50  41  71 S10       30.13R HAZE
CHANUTE        MOSUNNY   54  46  74 S8        30.18R
WICHITA        PTSUNNY   56  44  64 S12       30.11R
OMAHA          PTSUNNY   56  40  55 S17       30.06S
LINCOLN        PTSUNNY   57  40  52 S17       30.02F
FALLS CITY     MOSUNNY   53  42  66 S8        30.11R
LAMONI         SUNNY     53  40  61 S12       30.15S
DES MOINES     PTSUNNY   51  33  50 SE10      30.18R

$$




USA.gov is the U.S. government's official web portal to all federal, state and local government web resources and services.